Simultaneous Nadir Overpasses (SNOs) Predictions

Prediction of SNOs between GOES-17 and NOAA-20 Satellite Orbit:

Table of predicted SNOs for the next 14.0 days since TLE Epoch: 9/10/2022
Index Date Time (GOES-17) GOES-17 Lat,Lon NOAA-20 Lat,Lon Distance(km) Time Diff (sec)
1 09/10/2022 22:24:06 -0.06,-137.31 0.58,-134.55 314.39 80
2 09/12/2022 10:43:15 0.06,-137.32 0.60,-139.83 285.20 80
3 09/13/2022 10:27:10 0.06,-137.32 -0.39,-135.30 231.13 80
4 09/14/2022 22:46:28 -0.06,-137.31 -0.78,-140.61 375.03 80
5 09/15/2022 22:30:23 -0.06,-137.31 0.22,-136.08 140.87 80
6 09/17/2022 10:49:31 0.05,-137.31 0.95,-141.35 459.92 80
7 09/18/2022 10:33:27 0.05,-137.31 -0.05,-136.82 55.46 80
8 09/20/2022 22:34:00 -0.04,-137.27 -0.12,-137.60 37.17 80
9 09/21/2022 22:17:55 -0.04,-137.26 0.89,-133.07 477.79 80
10 09/23/2022 10:37:04 0.03,-137.26 0.29,-138.34 124.20 80
